Home   Weather   Fürstenfeld   Past weeks

Flag for Austria Past Weather in Fürstenfeld, Styria, Austria — Yesterday and Last 2 Weeks

Now
81 °F

Passing clouds.


Feels Like: 81 °F
Forecast: 60 / 83 °F
Wind: 7 mph from South

Location: Graz-Thalerhof-Flughafen

Current Time: Jun 26, 2017 at 4:00:56 pm

Latest Report: Jun 26, 2017 at 3:20 pm


Visibility: N/A

Pressure: 29.92 "Hg

Humidity: 48%

Dew Point: 59 °F

Location of FürstenfeldLocation

Past Weather in Fürstenfeld — Graph

°F

Fürstenfeld Temperature Yesterday

Maximum temperature yesterday: 77 °F (at 11:20 am)
Minimum temperature yesterday: 63 °F (at 2:20 pm)
Average temperature yesterday: 68 °F

High & Low Weather Summary for the Past Weeks

 TemperatureHumidityPressure
High93 °F (Jun 22, 3:20 pm)100% (Jun 12, 11:20 pm)30.24 "Hg (Jun 12, 11:20 pm)
Low50 °F (Jun 19, 4:50 am)28% (Jun 22, 3:20 pm)29.89 "Hg (Jun 12, 5:50 pm)
Average71 °F65%30.03 "Hg
* Reported Jun 11 2:20 pm — Jun 26 2:20 pm, Fürstenfeld. Weather by CustomWeather, © 2017

Note: Actual official high and low records may vary slightly from our data, if they occured in-between our weather recording intervals... More about our weather records

Advertising

Fürstenfeld Weather History for the Previous 24 Hours

Scroll right to see more
 ConditionsComfort  
Time TempWeatherWind HumidityBarometerVisibility
2:20 pm
Mon, Jun 26
81 °FPassing clouds.7 mph48%29.95 "HgN/A
1:50 pm81 °FPassing clouds.7 mph51%29.95 "HgN/A
1:20 pm79 °FPassing clouds.6 mph51%29.95 "HgN/A
12:50 pm79 °FPassing clouds.5 mph48%29.98 "HgN/A
12:20 pm77 °FPassing clouds.6 mph51%29.98 "HgN/A
11:50 am77 °FPassing clouds.5 mph54%29.98 "HgN/A
11:20 am75 °FPassing clouds.6 mph61%29.98 "HgN/A
10:20 am72 °FScattered clouds.5 mph69%29.98 "HgN/A
9:50 am72 °FScattered clouds.3 mph69%29.98 "HgN/A
9:20 am70 °FScattered clouds.2 mph73%29.98 "HgN/A
8:50 am66 °FScattered clouds.2 mph88%29.98 "HgN/A
8:20 am66 °FScattered clouds.2 mph88%29.98 "HgN/A
7:50 am63 °FFog.2 mph94%29.98 "Hg3 mi
7:20 am61 °FDense fog.1 mph100%29.98 "Hg0 mi
6:50 am61 °FScattered clouds.2 mph94%29.98 "Hg1 mi
6:20 am61 °FPartly sunny.2 mph94%29.98 "Hg0 mi
5:50 am63 °FFog.2 mph94%29.98 "Hg4 mi
5:20 am63 °FScattered clouds.2 mph94%29.98 "Hg3 mi
4:50 am63 °FPassing clouds.1 mph94%29.95 "Hg4 mi
4:20 am61 °FCool.1 mph94%29.95 "Hg2 mi
3:50 am63 °FPassing clouds.2 mph94%29.98 "Hg6 mi
3:20 am63 °FMild.2 mph100%29.98 "Hg4 mi
2:50 am63 °FPassing clouds.3 mph100%29.98 "Hg4 mi
2:20 am64 °FPartly cloudy.2 mph94%29.98 "HgN/A
1:50 am64 °FFog.1 mph94%29.98 "Hg2 mi
1:20 am64 °FPartly cloudy.2 mph94%29.98 "Hg4 mi
12:50 am64 °FPartly cloudy.1 mph94%29.98 "Hg4 mi
12:20 am64 °FPassing clouds.1 mph94%29.98 "Hg5 mi
11:50 pm
Sun, Jun 25
64 °FLow clouds.2 mph94%29.98 "HgN/A
11:20 pm64 °FLow clouds.3 mph94%29.98 "HgN/A
10:50 pm64 °FPassing clouds.2 mph100%29.98 "HgN/A
10:20 pm66 °FLight rain. Passing clouds.3 mph94%29.98 "HgN/A
9:50 pm66 °FLight rain. Passing clouds.3 mph94%29.98 "HgN/A
9:20 pm66 °FLight rain. Overcast.5 mph94%29.95 "HgN/A
8:50 pm66 °FThundershowers. Broken clouds.7 mph94%29.95 "HgN/A
8:20 pm68 °FLight rain. Broken clouds.7 mph88%29.95 "HgN/A
7:50 pm68 °FBroken clouds.3 mph88%29.92 "HgN/A
7:20 pm68 °FBroken clouds.2 mph88%29.92 "HgN/A
6:50 pm70 °FPartly sunny.3 mph78%29.92 "HgN/A
6:20 pm70 °FPartly sunny.2 mph78%29.92 "HgN/A
5:50 pm70 °FPartly sunny.3 mph78%29.92 "HgN/A
5:20 pm68 °FPartly sunny.7 mph83%29.92 "HgN/A
4:50 pm70 °FPartly sunny.7 mph78%29.92 "HgN/A
4:20 pm68 °FPartly sunny.5 mph83%29.95 "HgN/A
Weather by CustomWeather, © 2017

See weather overviewHow to use our weather pages